DW0108 Weather Reports


Display with metric or nautical units.
time (UTC)temp
F
wind
direction
speed
MPH
gust
MPH
rain 1hr
in
rain 24hr
in
rain mn
in
humidity
%
barometer
mb
20260901143839 87 160 1.0 3.0 0.00 0.00 0.00 62 1017.9
20260901142834 86 149 2.0 4.0 0.00 0.00 0.00 64 1017.9
20260901141819 85 158 1.0 4.0 0.00 0.00 0.00 67 1017.9
20260901140832 84 173 1.0 3.0 0.00 0.00 0.00 68 1017.9
20260901135825 83 166 1.0 3.0 0.00 0.00 0.00 69 1017.9
20260901134835 82 146 1.0 3.0 0.00 0.00 0.00 70 1017.9
20260901133846 82 152 1.0 3.0 0.00 0.00 0.00 71 1017.9
20260901132839 81 112 0.0 2.0 0.00 0.00 0.00 72 1017.9
20260901131810 80 84 0.0 1.0 0.00 0.00 0.00 76 1017.9
20260901130828 78 68 0.0 1.0 0.00 0.00 0.00 79 1017.9
20260901125806 77 26 0.0 0.0 0.00 0.00 0.00 81 1017.6
20260901124829 77 98 0.0 2.0 0.00 0.00 0.00 81 1017.6
20260901123807 77 91 0.0 1.0 0.00 0.00 0.00 79 1017.2
20260901122817 77 117 0.0 0.0 0.00 0.00 0.00 78 1017.2
20260901120809 77 134 0.0 1.0 0.00 0.00 0.00 80 1017.2
20260901115804 77 94 0.0 0.0 0.00 0.00 0.00 80 1016.9
20260901114815 77 192 0.0 1.0 0.00 0.00 0.00 78 1016.9
20260901113807 77 117 0.0 0.0 0.00 0.00 0.00 77 1016.9
20260901111828 78 183 0.0 0.0 0.00 0.00 0.00 75 1016.5
20260901110817 78 58 0.0 0.0 0.00 0.00 0.00 74 1016.5
20260901105825 79 84 0.0 0.0 0.00 0.00 0.00 75 1016.5
20260901104838 79 65 0.0 1.0 0.00 0.00 0.00 74 1016.5
20260901103845 80 49 0.0 1.0 0.00 0.00 0.00 72 1016.5
20260901102847 80 170 0.0 1.0 0.00 0.00 0.00 70 1016.5
20260901101809 80 116 0.0 1.0 0.00 0.00 0.00 70 1016.5
20260901100808 81 187 0.0 1.0 0.00 0.00 0.00 69 1016.2
20260901095822 81 159 0.0 1.0 0.00 0.00 0.00 68 1016.5
20260901094828 81 151 0.0 2.0 0.00 0.00 0.00 68 1016.2
20260901092820 82 136 0.0 2.0 0.00 0.00 0.00 66 1016.5
20260901090807 82 159 0.0 1.0 0.00 0.00 0.00 66 1016.9
20260901084815 82 151 1.0 2.0 0.00 0.00 0.00 63 1016.5
20260901083836 82 145 0.0 1.0 0.00 0.00 0.00 62 1016.5
20260901082810 83 164 1.0 5.0 0.00 0.00 0.00 61 1016.5
20260901081806 83 143 1.0 4.0 0.00 0.00 0.00 61 1016.9
20260901080808 83 174 1.0 3.0 0.00 0.00 0.00 61 1016.5
20260901075812 83 140 1.0 3.0 0.00 0.00 0.00 61 1016.2
20260901073838 78 61 0.0 1.0 0.00 0.00 0.00 67 1016.2
20260901072812 78 45 0.0 1.0 0.00 0.00 0.00 70 1016.2
20260901071839 78 34 0.0 0.0 0.00 0.00 0.00 71 1016.2
20260901070815 78 197 0.0 0.0 0.00 0.00 0.00 70 1016.2
20260901065836 79 297 0.0 0.0 0.00 0.00 0.00 70 1015.9
20260901064815 79 297 0.0 0.0 0.00 0.00 0.00 69 1015.9
20260901063810 78 168 0.0 2.0 0.00 0.00 0.00 67 1015.9
20260901062825 79 166 0.0 1.0 0.00 0.00 0.00 67 1015.9
20260901061810 78 122 0.0 2.0 0.00 0.00 0.00 68 1015.9
20260901060819 79 280 0.0 1.0 0.00 0.00 0.00 68 1015.5
20260901055838 79 32 0.0 0.0 0.00 0.00 0.00 67 1015.5
20260901053837 79 199 0.0 0.0 0.00 0.00 0.00 69 1015.2
20260901052845 79 116 0.0 0.0 0.00 0.00 0.00 66 1015.2
20260901051835 80 41 0.0 0.0 0.00 0.00 0.00 67 1015.2
20260901045829 81 50 0.0 0.0 0.00 0.00 0.00 65 1015.2
20260901044826 81 50 0.0 0.0 0.00 0.00 0.00 65 1015.2
20260901043820 81 50 0.0 0.0 0.00 0.00 0.00 62 1015.2
20260901042818 82 48 0.0 0.0 0.00 0.00 0.00 63 1015.2
20260901041838 83 32 0.0 1.0 0.00 0.00 0.00 60 1015.2
20260901040813 84 179 0.0 0.0 0.00 0.00 0.00 58 1015.2
20260901035839 83 24 0.0 0.0 0.00 0.00 0.00 57 1015.2
20260901034819 84 60 0.0 0.0 0.00 0.00 0.00 60 1015.2
20260901033810 84 149 0.0 0.0 0.00 0.00 0.00 58 1015.2
20260901032805 85 33 0.0 1.0 0.00 0.00 0.00 57 1015.2
20260901031834 86 34 0.0 0.0 0.00 0.00 0.00 56 1015.2
20260901030844 86 36 0.0 0.0 0.00 0.00 0.00 55 1015.2
20260901025831 87 32 0.0 0.0 0.00 0.00 0.00 52 1014.8
20260901024847 88 243 0.0 0.0 0.00 0.00 0.00 51 1014.8
20260901023836 88 219 0.0 0.0 0.00 0.00 0.00 47 1014.8
20260901022837 89 32 0.0 0.0 0.00 0.00 0.00 48 1014.5
20260901020827 90 50 0.0 0.0 0.00 0.00 0.00 45 1014.5
20260901015815 91 63 0.0 1.0 0.00 0.00 0.00 43 1014.2
20260901014820 92 88 0.0 1.0 0.00 0.00 0.00 42 1014.2
20260901013814 92 120 0.0 0.0 0.00 0.00 0.00 41 1013.8
20260901012818 93 138 0.0 1.0 0.00 0.00 0.00 40 1013.8
20260901011819 94 131 0.0 2.0 0.00 0.00 0.00 40 1013.8
20260901010837 94 144 0.0 2.0 0.00 0.00 0.00 38 1013.8
20260901004843 95 164 1.0 3.0 0.00 0.00 0.00 37 1013.8
20260901003836 96 172 0.0 2.0 0.00 0.00 0.00 37 1013.8
20260901001842 97 189 0.0 3.0 0.00 0.00 0.00 37 1013.5
20260901000805 97 168 1.0 3.0 0.00 0.00 0.00 35 1013.8
20260831235819 97 172 1.0 4.0 0.00 0.00 0.00 33 1013.5
20260831234828 98 177 1.0 3.0 0.00 0.00 0.00 34 1013.8
20260831233842 98 166 2.0 3.0 0.00 0.00 0.00 33 1013.8
20260831232843 98 129 1.0 2.0 0.00 0.00 0.00 33 1013.8
20260831231839 99 121 1.0 4.0 0.00 0.00 0.00 33 1013.8
20260831225817 99 155 1.0 4.0 0.00 0.00 0.00 32 1013.8
20260831224820 99 186 2.0 6.0 0.00 0.00 0.00 32 1013.5
20260831223826 99 172 1.0 3.0 0.00 0.00 0.00 33 1014.2
20260831222825 98 178 2.0 3.0 0.00 0.00 0.00 33 1013.8
20260831221822 99 177 2.0 5.0 0.00 0.00 0.00 33 1014.2
20260831220834 99 190 2.0 5.0 0.00 0.00 0.00 32 1014.2
20260831214830 100 171 2.0 6.0 0.00 0.00 0.00 33 1014.2
20260831213831 99 166 2.0 4.0 0.00 0.00 0.00 32 1014.5
20260831212820 99 169 3.0 5.0 0.00 0.00 0.00 33 1014.5
20260831211829 100 190 2.0 5.0 0.00 0.00 0.00 32 1014.5
20260831210808 100 193 1.0 4.0 0.00 0.00 0.00 31 1014.8
20260831204846 99 170 2.0 6.0 0.00 0.00 0.00 33 1014.8
20260831203844 99 159 2.0 6.0 0.00 0.00 0.00 33 1015.2
20260831201846 98 160 2.0 5.0 0.00 0.00 0.00 35 1015.2
20260831200815 98 175 3.0 7.0 0.00 0.00 0.00 35 1015.5
20260831195838 97 166 2.0 8.0 0.00 0.00 0.00 36 1015.5
20260831194805 101 130 2.0 5.0 0.00 0.00 0.00 35 1015.9
20260831192818 99 166 2.0 8.0 0.00 0.00 0.00 34 1015.9
20260831191818 97 193 2.0 6.0 0.00 0.00 0.00 34 1016.2
20260831190834 98 175 2.0 6.0 0.00 0.00 0.00 36 1015.9
20260831185819 97 164 3.0 8.0 0.00 0.00 0.00 36 1016.2
20260831183846 97 167 4.0 11.0 0.00 0.00 0.00 36 1016.2
20260831182837 98 170 1.0 4.0 0.00 0.00 0.00 39 1016.5
20260831181837 96 164 3.0 6.0 0.00 0.00 0.00 39 1016.5
20260831180809 97 175 3.0 6.0 0.00 0.00 0.00 37 1016.9
20260831175806 97 184 2.0 6.0 0.00 0.00 0.00 39 1017.2
20260831173847 96 158 2.0 6.0 0.00 0.00 0.00 39 1017.2
20260831172847 96 175 1.0 5.0 0.00 0.00 0.00 38 1017.2
20260831171842 95 168 2.0 7.0 0.00 0.00 0.00 41 1017.6
20260831170838 95 173 3.0 6.0 0.00 0.00 0.00 41 1017.6
20260831165808 95 166 3.0 6.0 0.00 0.00 0.00 41 1017.9
20260831164818 94 165 3.0 6.0 0.00 0.00 0.00 42 1017.6
20260831163805 93 160 3.0 7.0 0.00 0.00 0.00 43 1017.6
20260831162807 93 167 3.0 5.0 0.00 0.00 0.00 43 1017.6
20260831161834 93 190 1.0 4.0 0.00 0.00 0.00 43 1017.9
20260831160816 94 199 1.0 5.0 0.00 0.00 0.00 45 1017.9
20260831155846 93 183 1.0 5.0 0.00 0.00 0.00 48 1017.9
20260831154829 92 178 2.0 5.0 0.00 0.00 0.00 48 1017.9
20260831153833 91 216 1.0 4.0 0.00 0.00 0.00 51 1017.6
20260831152807 90 174 3.0 5.0 0.00 0.00 0.00 52 1017.6
20260831151804 89 245 1.0 2.0 0.00 0.00 0.00 56 1017.6
20260831150820 88 190 3.0 7.0 0.00 0.00 0.00 57 1017.9
20260831145820 88 170 2.0 6.0 0.00 0.00 0.00 60 1017.9
20260831144825 88 188 2.0 5.0 0.00 0.00 0.00 62 1017.9